Location: PSU-Greenbush Astrophysical Observatory
(37.5140°N, 94.9880°W)
Time: 09:37:32
(UTC-06:00)

Courier 1B - All Passes

Search period start: 19 January 2020 00:00
Search period end: 29 January 2020 00:00
Orbit: 962 x 1209 km, 28.3° (Epoch: 18 January)

Date Brightness Start Highest point End Pass type
(mag) Time Alt. Az. Time Alt. Az. Time Alt. Az.
19 Jan - 04:15:04 10° SSW 04:20:44 23° SSE 04:26:32 10° ESE visible
19 Jan - 06:07:13 10° SW 06:14:17 39° S 06:21:26 10° ESE visible
19 Jan - 08:00:50 10° WSW 08:08:06 42° S 08:15:17 10° ESE daylight
19 Jan - 09:55:23 10° WSW 10:01:45 28° SSW 10:07:58 10° SE daylight
19 Jan - 11:53:46 10° SW 11:54:57 10° SSW 11:56:08 10° SSW daylight
20 Jan - 03:22:20 10° SSW 03:27:04 18° SSE 03:31:55 10° ESE visible
20 Jan - 05:13:40 10° SW 05:20:29 35° SSE 05:27:26 10° ESE visible
20 Jan - 07:06:59 10° WSW 07:14:15 43° S 07:21:33 10° ESE daylight
20 Jan - 09:01:13 10° WSW 09:08:00 32° SSW 09:14:40 10° SE daylight
20 Jan - 10:57:21 10° WSW 11:01:20 15° SSW 11:05:17 10° S daylight
21 Jan - 02:30:14 10° S 02:33:28 13° SSE 02:36:45 10° ESE visible
21 Jan - 04:20:18 10° SW 04:26:42 31° SSE 04:33:20 10° ESE visible
21 Jan - 06:13:13 10° WSW 06:20:24 43° S 06:27:42 10° ESE visible
21 Jan - 08:07:11 10° WSW 08:14:12 37° SSW 08:21:11 10° SE daylight
21 Jan - 10:02:26 10° WSW 10:07:41 20° SSW 10:12:52 10° SSE daylight
22 Jan - 03:27:08 10° SSW 03:33:00 26° SSE 03:39:06 10° ESE visible
22 Jan - 05:19:34 10° WSW 05:26:34 41° S 05:33:47 10° ESE visible
22 Jan - 07:13:15 10° WSW 07:20:22 40° S 07:27:33 10° ESE daylight
22 Jan - 09:07:58 10° WSW 09:13:59 24° SSW 09:19:57 10° SSE daylight
23 Jan - 02:34:13 10° SSW 02:39:21 21° SSE 02:44:40 10° ESE visible
23 Jan - 04:26:02 10° SW 04:32:46 38° S 04:39:47 10° ESE visible
23 Jan - 06:19:26 10° WSW 06:26:32 42° S 06:33:48 10° ESE visible
23 Jan - 08:13:45 10° WSW 08:20:14 29° SSW 08:26:44 10° SE daylight
23 Jan - 10:10:55 10° SW 10:13:34 12° SSW 10:16:11 10° S daylight
24 Jan - 01:41:43 10° S 01:45:45 16° SSE 01:49:54 10° ESE night (unlit)
24 Jan - 03:32:38 10° SW 03:39:01 33° SSE 03:45:43 10° ESE visible
24 Jan - 05:25:42 10° WSW 05:32:42 42° S 05:39:59 10° ESE visible
24 Jan - 07:19:43 10° WSW 07:26:27 33° SSW 07:33:18 10° SE daylight
24 Jan - 09:15:26 10° WSW 09:19:54 16° SSW 09:24:22 10° S daylight
25 Jan - 00:50:13 10° SSE 00:52:12 11° SSE 00:54:13 10° SE night (unlit)
25 Jan - 02:39:23 10° SW 02:45:20 29° SSE 02:51:34 10° ESE visible
25 Jan - 04:32:04 10° WSW 04:38:53 42° S 04:46:03 10° ESE visible
25 Jan - 06:25:48 10° WSW 06:32:40 37° S 06:39:41 10° SE visible
25 Jan - 08:20:46 10° WSW 08:26:12 21° SSW 08:31:41 10° SSE daylight
26 Jan - 01:46:21 10° SSW 01:51:42 23° SSE 01:57:16 10° ESE night (unlit)
26 Jan - 03:38:31 10° WSW 03:45:07 39° S 03:52:05 10° ESE visible
26 Jan - 05:32:00 10° WSW 05:38:51 40° S 05:45:58 10° ESE visible
26 Jan - 07:26:27 10° WSW 07:32:28 25° SSW 07:38:35 10° SSE daylight
27 Jan - 00:53:37 10° SSW 00:58:07 18° SSE 01:02:47 10° ESE night (unlit)
27 Jan - 02:45:06 10° SW 02:51:24 35° SSE 02:58:03 10° ESE visible
27 Jan - 04:38:17 10° WSW 04:45:03 41° S 04:52:09 10° ESE visible
27 Jan - 06:32:23 10° WSW 06:38:43 29° SSW 06:45:15 10° SE visible
27 Jan - 08:28:58 10° SW 08:32:07 13° SSW 08:35:17 10° S daylight
28 Jan - 00:01:23 10° S 00:04:35 14° SSE 00:07:51 10° ESE night (unlit)
28 Jan - 01:51:48 10° SW 01:57:44 31° SSE 02:03:59 10° ESE night (unlit)
28 Jan - 03:44:40 10° WSW 03:51:17 41° S 03:58:17 10° ESE visible
28 Jan - 05:38:29 10° WSW 05:44:57 33° SSW 05:51:43 10° SE visible
28 Jan - 07:33:51 10° WSW 07:38:26 17° SSW 07:43:05 10° S daylight
